Flag Weather past 2 weeks in Aarau, Aargau, Switzerland

Now
60 °F

Cool.


Feels Like: 60 °F
Forecast: 39 / 62 °F
Wind: 3 mph from North

Location: Wynau

Current Time: Oct 30, 2014 at 2:41:32 PM

Latest Report: Oct 30, 2014 at 2:00 PM


Visibility: N/A

Pressure: 30.23 "Hg

Humidity: 61%

Dew point: 47 °F

Location of AarauLocation

Historic Weather in Aarau — Graph

°F

Aarau temperature yesterday

Maximum temperature yesterday: 58 °F (at 3:00 PM)
Minimum temperature yesterday: 42 °F (at 2:00 AM)
Average temperature yesterday: 48 °F

Past Weeks' High & Low Weather Summary

 TemperatureHumidityPressure
High70 °F (Oct 19, 4:00 PM)100% (Oct 16, 12:00 AM)30.34 "Hg (Oct 16, 12:00 AM)
Low35 °F (Oct 24, 5:00 AM)50% (Oct 21, 3:00 PM)29.76 "Hg (Oct 15, 5:00 PM)
Average51 °F88%30.14 "Hg
* Reported Oct 15 2:00 PM — Oct 30 1:00 PM, Aarau, Weather by CustomWeather, © 2014

Note: Actual official high and low records may vary slightly from our data, if they occured in-between our weather recording intervals... More about our weather records

Advertising

Aarau weather history for previous 24 hours

 ConditionsComfort  
Time TempWeatherWind HumidityBarometerVisibility
1:00 PM
Oct 30
58 °FCool.3 mph71%30.25 "HgN/A
12:00 PM55 °FCool.1 mph71%30.28 "HgN/A
11:00 AM51 °FCool.No wind83%30.29 "HgN/A
10:00 AM49 °FCool.2 mph86%30.29 "HgN/A
9:00 AM48 °FCool.2 mph90%30.29 "HgN/A
8:00 AM46 °FCool.No wind96%30.27 "HgN/A
7:00 AM46 °FCool.1 mph96%30.27 "HgN/A
6:00 AM46 °FCool.2 mph97%30.25 "HgN/A
5:00 AM46 °FCool.1 mph95%30.24 "HgN/A
4:00 AM45 °FCool.1 mph96%30.23 "HgN/A
3:00 AM45 °FQuite cool.1 mph99%30.24 "HgN/A
2:00 AM44 °FQuite cool.No wind99%30.24 "HgN/A
1:00 AM44 °FQuite cool.1 mph100%30.24 "HgN/A
12:00 AM43 °FQuite cool.2 mph100%30.24 "HgN/A
11:00 PM
Oct 29
43 °FQuite cool.1 mph100%30.23 "HgN/A
10:00 PM44 °FQuite cool.1 mph99%30.22 "HgN/A
9:00 PM45 °FQuite cool.1 mph99%30.20 "HgN/A
8:00 PM45 °FQuite cool.1 mph100%30.18 "HgN/A
7:00 PM47 °FCool.No wind99%30.16 "HgN/A
6:00 PM49 °FCool.1 mph94%30.13 "HgN/A
5:00 PM53 °FCool.1 mph87%30.10 "HgN/A
4:00 PM56 °FCool.1 mph82%30.09 "HgN/A
3:00 PM58 °FCool.3 mph71%30.08 "HgN/A
2:00 PM56 °FCool.3 mph74%30.09 "HgN/A
Weather by CustomWeather, © 2014

See weather overviewHow to use our weather pages